Regional Weather Roundup
Issued by NWS

Home | Current Version | Previous Version | Text Only | Print | Product List | Glossary On
Versions: 1 2 3 4 5 6 7 8 9 10 11 12 13 14 15 16 17 18 19 20 21 22 23 24 25 26 27 28 29 30 31 32 33 34 35 36 37 38 39 40 41 42 43 44 45 46 47 48 49 50
000
ASUS43 KMPX 310110
RWRMN
WEATHER ROUNDUP FOR MINNESOTA
NATIONAL WEATHER SERVICE TWIN CITIES/CHANHASSEN MN
700 PM CST FRI JAN 30 2015


NOTE: "FAIR" INDICATES FEW OR NO CLOUDS BELOW 12,000 FEET WITH NO
SIGNIFICANT WEATHER AND/OR OBSTRUCTIONS TO VISIBILITY. N/A MEANS
CURRENT SKY AND/OR WEATHER CONDITIONS ARE NOT AVAILABLE.

MNZ060>063-068>070-310200-
   Twin Cities Metro

CITY           SKY/WX    TMP DP  RH WIND       PRES   REMARKS
TWIN CITIES    PTCLDY    26  17  68 S8        30.24F WCI  18
ST PAUL        CLEAR     25  18  74 S9        30.26F WCI  15
CRYSTAL        CLEAR     27  18  69 S10       30.21F WCI  17
BLAINE         PTCLDY    27  19  74 S9        30.22F WCI  17
LAKEVILLE      CLEAR     23  19  86 S6        30.23F WCI  16
EDEN PRAIRIE   CLEAR     25  18  74 S9        30.22F WCI  15
SOUTH ST PAUL  CLEAR     26  18  73 S6        30.24F WCI  19
LAKE ELMO      FAIR      25  18  74 S9        30.24F WCI  15
$$
MNZ001>005-007-008-013>017-022>024-027-028-310200-
   Northwest Minnesota

CITY           SKY/WX    TMP DP  RH WIND       PRES   REMARKS
BEMIDJI        CLOUDY    22  16  78 S5        30.12S WCI  15
HALLOCK        CLOUDY    25  19  80 NW9       30.15R WCI  15
ROSEAU         CLOUDY    21  16  79 CALM      30.13R
WARROAD        CLOUDY    19  14  79 CALM      30.13S
THIEF RVR FALL CLOUDY    25  19  80 S3        30.11F
CROOKSTON      CLOUDY    27  23  86 S6        30.13S WCI  20
FOSSTON        MOCLDY    21  18  86 S7        30.12R WCI  13
DETROIT LAKES  CLEAR     23  21  93 S7        30.13S WCI  15
MOORHEAD       CLEAR     27  27 100 S10       30.13F WCI  17
PARK RAPIDS    CLOUDY    24  17  74 S10       30.12F WCI  14
MAHNOMEN       FAIR      20  17  88 S7        30.11S WCI  11
$$
MNZ006-009>011-018-025>026-310200-
   North Central Minnesota

CITY           SKY/WX    TMP DP  RH WIND       PRES   REMARKS
BAUDETTE       CLOUDY    17  10  74 S5        30.12R WCI  10
FLAG ISLAND    CLOUDY    12   9  85 E3        30.12F
INTL FALLS     CLOUDY    13   8  81 CALM      30.14F
WASKISH        CLOUDY    18  10  73 CALM      30.13F
BIG FORK       CLOUDY    18   9  68 S5        30.15S WCI  11
LONGVILLE      CLOUDY    21  12  68 S6        30.14F WCI  14
GRAND RAPIDS   CLOUDY    18   7  62 SE6       30.15F WCI   9
CRANE LAKE     CLOUDY    10   7  85 CALM      30.18S
ORR            CLOUDY    12   5  73 CALM      30.13S
COOK           CLOUDY    16   5  62 SW5       30.16R WCI   9
WALKER         CLOUDY    22  13  69 S3        30.12F
$$
MNZ012-019>021-037-310200-
   Northeast Minnesota

CITY           SKY/WX    TMP DP  RH WIND       PRES   REMARKS
DULUTH         CLOUDY    14   3  61 S8        30.17S WCI   3
ELY            CLOUDY    12   7  79 S6        30.14R WCI   3
HIBBING        CLOUDY    16   4  59 S7        30.16S WCI   6
EVELETH        PTCLDY    18   5  57 S9G16     30.17R WCI   6
DULUTH HARBOR  CLOUDY    18   7  62 CALM      30.25F
TWO HARBORS    CLOUDY    18   9  68 S9        30.18F WCI   6
SILVER BAY     MOCLDY    16   7  67 CALM      30.18F
GRAND MARAIS     N/A     16  11  80 VRB3      30.23F
G MARAIS ARPRT LGT SNOW   9   3  78 S5        30.13F WCI   0
$$
MNZ029>031-032-039>041-046>048-054>057-064-310200-
   West Central Minnesota

CITY           SKY/WX    TMP DP  RH WIND       PRES   REMARKS
FERGUS FALLS   PTCLDY    25  19  80 SE7       30.17S WCI  17
WHEATON        CLEAR     30  27  86 CALM      30.17R
MORRIS         CLEAR     27  25  93 SE7       30.14S FOG     WCI  19
ALEXANDRIA     MOCLDY    24  20  84 SE7       30.15F WCI  16
ELBOW LAKE     FAIR      25  23  93 SE8       30.13F WCI  16
WADENA         CLOUDY    21  18  86 S3        30.14F
GLENWOOD       CLEAR     21  19  93 SE5       30.16S WCI  15
APPLETON       CLEAR     32  27  80 S6        30.16R WCI  26
BENSON         CLEAR     27  25  93 S7        30.16S WCI  19
ORTONVILLE     CLEAR     32  27  80 CALM      30.15S
MADISON        CLEAR     36  30  80 S6        30.15S
WILLMAR        FAIR      27  23  86 S5        30.19S WCI  21
$$
MNZ033>034-036-042>043-049>051-058-059-310200-
   Central Minnesota

CITY           SKY/WX    TMP DP  RH WIND       PRES   REMARKS
ST CLOUD       MOCLDY    23  17  78 CALM      30.21S
SAUK CENTRE    CLOUDY    24  20  86 SE7       30.18S WCI  16
PAYNESVILLE    MOCLDY    23  20  88 SE6       30.18F WCI  16
AITKIN         CLOUDY    25  14  63 CALM      30.17S
PINE RIVER     CLOUDY    23  16  74 S6        30.18F WCI  16
BRAINERD       CLOUDY    23  14  68 S9        30.17F WCI  13
STAPLES        CLOUDY    23  18  80 S9        30.16F WCI  13
LONG PRAIRIE   CLOUDY    25  19  80 SE6       30.17F WCI  18
LITTLE FALLS   CLOUDY    25  18  74 S3        30.20F
LITCHFIELD     CLEAR     25  23  93 CALM      30.20S
BUFFALO        CLEAR     25  18  76 S3        30.22F
MAPLE LAKE     CLEAR     25  20  83 S5        30.21F WCI  19
$$
MNZ037-044-045-052-053-310200-
   East Central Minnesota

CITY           SKY/WX    TMP DP  RH WIND       PRES   REMARKS
PRINCETON      MOCLDY    25  16  68 CALM      30.21S
MORA           CLOUDY    23  12  63 S3        30.23R
CAMBRIDGE      PTCLDY    27  16  63 S7        30.20S WCI  19
RUSH CITY      CLOUDY    21  13  71 S5        30.22S WCI  15
MOOSE LAKE     CLOUDY    19  10  68 SW6       30.19R WCI  11
HINCKLEY       CLOUDY    21  12  68 CALM      30.22R
CLOQUET        CLOUDY    16   5  62 CALM      30.19R
MCGREGOR       CLOUDY    21  12  68 S5        30.19R WCI  15
$$
MNZ071>073-080-081-089-090-097-098-310200-
   Southwest Minnesota

CITY           SKY/WX    TMP DP  RH WIND       PRES   REMARKS
MONTEVIDEO     CLEAR     30  28  93 SW10      30.17F WCI  21
GRANITE FALLS  CLEAR     30  27  88 S8        30.19F WCI  23
CANBY          CLEAR     35  29  80 S5        30.15F WCI  31
MARSHALL       CLEAR     32  25  74 SW12      30.18F WCI  23
REDWOOD FALLS  CLEAR     30  25  81 S8        30.19F WCI  22
OLIVIA         CLEAR     28  27  93 S6        30.18F WCI  22
PIPESTONE      CLEAR     32  28  86 S12       30.16S WCI  23
WINDOM         CLEAR     30  27  86 S17G23    30.17F WCI  18
WORTHINGTON    CLEAR     30  25  80 SW15      30.20R WCI  19
JACKSON        CLEAR     32  27  80 S14       30.21F WCI  22
TRACY          CLEAR     32  28  84 SW10G17   30.17R WCI  24
SLAYTON        CLEAR     30  26  86 S16       30.16F WCI  19
$$
MNZ065>067-074>077-082>085-091>093-310200-
   South Central Minnesota

CITY           SKY/WX    TMP DP  RH WIND       PRES   REMARKS
MANKATO        CLEAR     27  19  74 S13G18    30.22S WCI  16
NEW ULM        CLEAR     28  23  80 S7        30.22R WCI  21
ST JAMES       CLEAR     30  25  80 S13       30.21F WCI  20
FAIRMONT       CLEAR     28  21  74 S15       30.20F WCI  17
GLENCOE        CLEAR     28  24  85 S7        30.21S WCI  21
FARIBAULT      CLEAR     27  19  74 S8        30.24S WCI  18
OWATONNA       CLEAR     27  19  74 S12       30.23F WCI  16
WASECA         CLEAR     27  21  80 S14       30.24F WCI  15
ALBERT LEA     CLEAR     27  21  80 S9        30.25F WCI  17
$$
MNZ078>079-086>088-094>096-310200-
   Southeast Minnesota

CITY           SKY/WX    TMP DP  RH WIND       PRES   REMARKS
ROCHESTER      CLEAR     21  13  71 S13       30.26F WCI   9
RED WING       CLEAR     21  12  68 SE8       30.27F WCI  12
STANTON        CLEAR     27  19  74 S8        30.23F WCI  18
DODGE CENTER   CLEAR     25  19  80 S13       30.24F WCI  13
WINONA         PTCLDY    21  10  63 SE5       30.34S WCI  15
AUSTIN         CLEAR     25  18  74 S10       30.26F WCI  15
PRESTON        CLEAR     20  11  68 S10       30.29F WCI   9
$$
ABBREVIATIONS USED IN REMARKS
   TC - TEMPERATURES IN CELSIUS
  WCI - WIND CHILL INDEX
   HX - HEAT INDEX
  VSB - VISIBILITY
$$


USA.gov is the U.S. government's official web portal to all federal, state and local government web resources and services.